Weather History for Keahole Point, HI

Change the Weather History Date:

Saturday, May 31, 2014

  Actual Average Record
Temperature  
Mean Temperature 78 °F -  
Max Temperature 84 °F 81 °F 89 °F (1983)
Min Temperature 73 °F 72 °F 68 °F (1993)
Cooling Degree Days 14    
Growing Degree Days 28 (Base 50)    
Moisture  
Dew Point 66 °F    
Average Humidity 64    
Maximum Humidity 76    
Minimum Humidity 52    
Precipitation  
Precipitation 0.00 in - - ()
Sea Level Pressure  
Sea Level Pressure 29.97 in    
Wind  
Wind Speed 8 mph (South)    
Max Wind Speed 14 mph    
Max Gust Speed -    
Visibility 10 miles    
Events Rain    
Averages and records for this station are not official NWS values.
T = Trace of Precipitation, MM = Missing Value Source: NWS Daily Summary

Daily Weather History Graph

Daily Weather History Graph

Search for Another Location

Airport:

Trip Planner

Search our weather history database for the weather conditions in past years. The results will help you decide how hot, cold, wet, or windy it might be!

Date:

Astronomy

May. 31, 2014 Rise Set
Actual Time 5:44 AM HST 6:59 PM HST
Civil Twilight 5:20 AM HST 7:23 PM HST
Nautical Twilight 4:51 AM HST 7:52 PM HST
Astronomical Twilight 4:22 AM HST 8:21 PM HST
Moon 8:21 AM HST (5/31) 9:37 PM HST (5/31)
Length of Visible Light 14h 02m
Length of Day
13h 14m
Waxing Crescent, 10% of the Moon is Illuminated
May 31
Waxing Crescent
Jun 5
First Quarter
Jun 12
Full
Jun 19
Last Quarter
Jun 26
New

Hourly Weather History & Observations

Time (HST) Temp. Heat Index Dew Point Humidity Pressure Visibility Wind Dir Wind Speed Gust Speed Precip Events Conditions
12:53 AM 75.0 °F - 64.9 °F 71% 29.97 in 10.0 mi SE 6.9 mph - N/A   Clear
1:53 AM 75.0 °F - 64.0 °F 69% 29.96 in 10.0 mi SE 8.1 mph - N/A   Clear
2:53 AM 75.0 °F - 64.9 °F 71% 29.96 in 10.0 mi ESE 9.2 mph - N/A   Clear
3:53 AM 75.0 °F - 66.0 °F 73% 29.95 in 10.0 mi ESE 8.1 mph - N/A   Clear
4:53 AM 75.0 °F - 63.0 °F 66% 29.96 in 10.0 mi NE 8.1 mph - N/A   Mostly Cloudy
5:14 AM 75.2 °F - 62.6 °F 65% 29.95 in 10.0 mi NE 8.1 mph - N/A   Mostly Cloudy
5:22 AM 75.2 °F - 62.6 °F 65% 29.95 in 10.0 mi NE 6.9 mph - N/A   Mostly Cloudy
5:53 AM 73.0 °F - 64.0 °F 73% 29.96 in 10.0 mi NE 6.9 mph - N/A   Partly Cloudy
6:53 AM 77.0 °F - 64.0 °F 64% 29.97 in 10.0 mi NE 4.6 mph - N/A   Clear
7:53 AM 80.1 °F 81.1 °F 61.0 °F 52% 29.98 in 10.0 mi Calm Calm - N/A   Clear
8:53 AM 82.0 °F 83.1 °F 63.0 °F 52% 29.99 in 10.0 mi WSW 5.8 mph - N/A   Partly Cloudy
9:53 AM 82.0 °F 83.4 °F 64.0 °F 54% 29.99 in 10.0 mi WSW 9.2 mph - N/A   Clear
10:53 AM 82.9 °F 85.4 °F 66.9 °F 58% 29.99 in 10.0 mi SW 10.4 mph - N/A   Clear
11:53 AM 84.9 °F 88.2 °F 68.0 °F 57% 29.98 in 10.0 mi SSW 13.8 mph - N/A   Scattered Clouds
12:53 PM 84.9 °F 88.2 °F 68.0 °F 57% 29.97 in 10.0 mi SW 10.4 mph - N/A   Clear
1:53 PM 84.9 °F 88.2 °F 68.0 °F 57% 29.96 in 10.0 mi SSW 10.4 mph - N/A   Scattered Clouds
2:53 PM 84.9 °F 88.2 °F 68.0 °F 57% 29.95 in 10.0 mi SSW 11.5 mph - N/A   Partly Cloudy
3:53 PM 84.9 °F 88.2 °F 68.0 °F 57% 29.94 in 10.0 mi SSW 12.7 mph - N/A   Scattered Clouds
4:53 PM 82.9 °F 85.8 °F 68.0 °F 60% 29.94 in 10.0 mi South 11.5 mph - N/A   Mostly Cloudy
5:53 PM 82.0 °F 84.9 °F 68.0 °F 62% 29.95 in 10.0 mi South 10.4 mph - N/A   Overcast
6:53 PM 81.0 °F 83.8 °F 68.0 °F 65% 29.96 in 10.0 mi South 10.4 mph - N/A   Overcast
7:53 PM 80.1 °F 82.3 °F 66.9 °F 64% 29.99 in 10.0 mi SSE 4.6 mph - N/A   Mostly Cloudy
8:53 PM 80.1 °F 82.7 °F 68.0 °F 67% 29.99 in 10.0 mi West 6.9 mph - N/A   Mostly Cloudy
9:53 PM 78.1 °F - 70.0 °F 76% 30.01 in 10.0 mi North 4.6 mph - 0.00 in Rain Light Rain
10:54 PM 79.0 °F - 69.1 °F 72% 30.01 in 10.0 mi West 10.4 mph - 0.00 in   Unknown
11:53 PM 79.0 °F - 69.1 °F 72% 29.99 in 10.0 mi West 11.5 mph - N/A   Overcast